RH
74 78 80 81 81 80 78 76 71 72 71 66 59 44 28 25 15 29 36 15 8 11 14 12 10 11 11 9 7 9 16 17 13 14 14 12 18 23 27 35 38 39 47 46 51
78 81 82 84 84 83 82 82 79 76 76 74 65 37 24 25 37 45 23 14 19 16 14 16 16 16 15 11 10 12 18 14 11 11 11 12 15 23 26 34 40 47 43 45 48
83 84 85 86 88 86 86 85 85 80 81 77 68 39 17 31 54 17 19 27 22 15 14 16 18 16 15 15 12 12 15 12 10 10 10 11 19 22 27 29 36 46 45 41 40
84 87 89 90 91 93 89 89 87 86 83 78 72 49 17 43 25 18 22 23 22 18 16 16 19 22 20 20 18 17 14 14 11 10 9 10 22 28 30 28 34 38 35 32 32
88 90 93 95 96 95 93 95 91 92 84 77 72 56 33 53 33 19 24 22 24 23 18 20 20 23 26 23 22 19 17 16 16 12 9 17 24 30 33 33 33 30 32 36 38
97 94 96 98 99 96 89 94 97 84 81 76 73 64 60 36 14 20 24 24 22 23 20 20 20 19 23 24 25 19 18 18 16 17 13 24 31 28 30 30 30 31 36 37 38
100 99 99 100 100 100 100 93 92 69 67 73 73 75 77 37 10 14 24 24 23 25 21 19 19 20 23 27 22 21 24 24 21 18 18 12 26 23 30 30 31 33 36 38 38
100 100 97 100 97 94 94 82 77 69 66 66 61 77 82 15 27 30 20 21 21 21 23 18 16 18 22 23 23 23 26 31 23 19 19 13 22 22 31 30 35 35 38 39 44
89 85 85 88 89 86 77 66 50 51 55 62 55 75 75 24 29 26 24 24 20 19 22 16 17 22 24 31 36 31 34 32 28 20 20 18 21 30 32 30 33 34 36 38 47
72 73 76 78 70 62 58 43 33 42 63 85 82 65 44 27 21 21 20 19 19 21 22 22 28 31 35 40 47 36 31 27 25 18 15 15 22 36 33 30 30 33 36 40 48
63 62 69 70 63 58 49 33 51 65 75 61 62 53 39 27 25 18 17 17 21 23 31 26 36 43 36 34 31 31 33 29 25 23 22 17 18 36 35 32 34 35 38 43 49
86 65 59 59 56 47 44 68 55 53 71 50 56 53 48 44 48 37 24 20 23 33 27 32 38 30 29 29 32 33 34 37 31 24 23 27 29 22 36 30 29 30 36 44 56
83 75 79 73 53 39 53 50 36 36 69 52 36 36 32 30 50 43 23 20 21 24 26 37 29 22 25 25 28 32 35 35 32 30 26 29 33 25 26 30 28 29 30 45 53
90 82 74 60 50 74 70 60 51 53 56 37 29 24 18 21 24 25 20 25 27 28 29 32 24 21 23 28 27 33 26 27 31 38 44 29 52 30 24 27 29 29 42 51 51
90 85 81 61 78 83 60 55 46 42 50 20 25 24 22 21 24 25 21 24 28 31 27 36 26 25 28 29 23 30 27 30 30 36 39 37 41 29 22 22 25 32 44 50 51
90 90 80 62 68 65 61 47 35 83 76 36 33 33 30 27 28 28 28 25 25 31 30 32 24 22 25 23 24 24 30 35 37 41 63 38 38 44 38 49 43 49 49 50 54
88 86 78 83 81 70 65 48 71 95 34 27 40 35 44 45 41 35 37 38 39 41 44 32 29 25 21 24 24 25 39 60 60 66 58 34 35 39 59 60 51 58 55 54 52
75 86 80 75 81 75 69 84 79 39 31 18 18 30 51 45 44 40 39 45 36 33 38 41 34 23 22 27 30 34 40 62 67 65 52 25 33 34 60 59 59 56 56 51 52
88 82 91 70 73 86 83 99 60 48 26 25 24 29 46 39 45 37 42 41 32 34 37 31 28 18 20 22 27 29 36 34 44 41 54 40 34 56 58 62 61 57 56 61 60
79 87 88 65 69 88 96 66 59 38 20 25 32 33 49 41 31 44 27 20 18 20 21 23 30 22 20 19 18 22 22 31 44 46 51 44 38 42 68 70 66 72 67 69 65
79 91 58 68 82 96 96 79 46 31 30 31 36 37 36 27 29 30 27 18 14 17 17 20 31 31 18 23 27 26 30 31 36 58 57 56 62 58 64 64 68 67 75 68 74
91 99 73 73 99 91 88 65 40 36 29 31 28 34 38 31 30 24 29 20 19 18 24 26 35 39 27 22 21 22 27 30 59 41 65 75 54 44 60 62 64 65 73 76 83
98 92 98 80 90 94 69 62 49 45 38 30 32 25 24 26 26 25 21 22 17 28 31 27 41 66 38 30 33 28 26 28 35 48 52 72 71 57 59 62 62 75 73 84 93
98 100 93 98 84 77 76 68 69 44 38 38 29 27 29 28 26 29 26 23 29 31 43 40 41 48 56 44 42 43 35 32 35 68 56 60 60 63 59 59 64 74 79 91 94
99 99 93 99 99 89 81 69 60 62 43 38 36 37 39 40 32 36 29 27 30 47 33 34 42 44 43 39 38 40 37 38 48 49 57 48 51 46 54 59 59 86 95 93 90
99 99 94 98 77 98 96 94 71 57 46 42 43 38 39 49 38 34 42 43 36 48 40 43 48 45 45 44 48 56 50 48 46 45 45 48 45 38 45 80 89 89 96 95 93
94 88 94 86 81 91 86 82 69 54 56 58 51 45 54 55 45 48 49 53 50 56 60 58 64 74 73 55 64 74 64 54 48 43 48 59 49 45 63 88 86 92 91 90 89
Wind_Speed
8 8 9 11 12 14 16 18 20 23 25 30 34 36 38 38 35 16 3 3 7 14 17 18 11 15 7 3 2 3 4 2 4 6 6 3 4 4 4 6 4 3 4 15 31
9 11 10 12 14 15 17 20 21 23 26 31 34 35 38 39 24 8 1 4 9 13 16 14 9 13 4 3 3 4 4 5 3 1 3 5 4 6 4 3 6 9 15 25 27
11 13 13 13 15 15 18 20 22 22 26 31 34 35 35 30 5 3 1 7 10 12 13 17 17 3 3 3 4 1 5 4 2 1 1 3 4 3 8 3 6 14 16 14 24
12 14 15 16 15 17 18 20 21 23 26 29 32 35 32 12 5 2 5 9 9 13 15 14 7 8 4 3 3 1 3 3 5 4 3 3 4 4 4 2 12 10 8 10 15
14 16 18 18 17 17 21 20 21 23 26 25 29 32 18 5 9 5 4 10 9 13 9 6 5 5 6 5 6 2 3 2 4 3 3 7 5 6 5 6 9 10 11 9 9
17 16 20 20 19 19 20 22 23 23 24 24 24 27 5 4 4 6 9 12 9 9 10 9 5 4 5 5 3 3 5 7 4 7 4 7 6 7 4 7 9 11 10 9 10
21 19 20 21 20 18 19 20 25 24 21 23 23 18 5 16 12 17 20 7 8 9 4 10 7 5 6 7 4 6 6 8 7 6 5 6 4 6 15 10 11 10 9 8 9
8 12 14 13 9 11 16 19 23 25 23 21 18 10 8 18 19 21 15 17 12 13 13 8 3 2 3 5 8 5 3 2 5 2 6 11 9 4 16 16 12 11 9 11 9
2 3 6 8 7 14 17 22 24 24 25 18 6 1 10 16 9 9 6 8 9 11 13 6 2 3 3 1 4 3 3 4 9 4 5 8 5 6 12 16 16 15 14 12 8
4 5 6 9 9 13 18 22 20 18 8 0 1 3 9 5 6 2 1 3 2 6 2 1 2 2 2 3 4 4 3 5 6 5 4 2 1 4 12 14 18 16 13 10 12
3 7 8 10 9 12 18 10 6 4 2 5 3 6 13 12 13 3 4 3 2 2 3 3 1 7 8 8 8 8 6 7 4 5 3 4 4 9 9 5 8 10 12 11 12
7 4 6 11 12 11 12 3 3 2 9 12 16 19 30 20 9 19 10 3 5 6 2 4 8 11 7 9 7 7 6 6 6 3 1 5 7 9 13 17 18 18 14 13 9
10 9 6 5 8 10 6 10 13 16 4 7 14 9 9 18 14 20 5 2 5 4 6 8 7 5 6 8 11 5 4 3 3 4 1 3 5 4 6 7 6 7 8 11 20
8 6 5 2 4 4 4 15 5 4 4 6 5 6 5 5 5 18 15 9 3 8 7 8 9 11 8 6 2 2 2 2 3 5 2 5 6 7 4 5 10 13 12 16 17
6 4 3 5 1 2 7 3 3 1 4 4 4 2 2 7 1 2 2 5 15 8 2 8 4 2 1 4 2 5 3 3 1 2 2 4 4 4 7 8 9 7 12 15 15
7 6 3 3 7 3 6 2 4 5 8 5 2 2 3 1 1 2 1 1 4 9 9 7 4 3 5 1 1 2 4 6 4 3 2 7 6 4 1 3 6 5 13 15 13
8 9 6 4 3 4 5 1 4 4 5 4 3 3 4 5 3 4 4 3 5 4 6 3 10 9 5 5 3 2 5 3 3 1 5 3 3 6 4 6 5 11 13 13 15
7 9 8 10 6 3 1 4 6 6 10 7 5 2 6 7 6 7 4 3 6 3 2 6 5 3 4 10 8 7 8 5 6 3 4 3 5 4 3 5 12 13 13 13 14
8 9 10 15 11 5 4 3 7 6 5 5 9 7 6 5 4 6 8 7 6 9 6 3 5 3 3 3 9 4 4 6 3 1 1 4 0 2 4 6 10 12 11 8 9
12 3 10 14 12 3 2 13 6 4 4 3 2 6 6 6 8 7 6 4 4 5 5 4 2 3 4 5 3 7 4 1 1 2 4 3 5 5 6 7 9 11 13 11 8
6 1 6 17 15 1 6 7 9 12 7 5 2 4 4 4 2 1 4 2 2 4 4 2 3 5 3 2 3 4 2 0 3 5 4 4 6 6 10 12 14 14 11 16 15
4 1 3 25 4 3 12 5 5 11 5 6 3 6 4 3 1 3 4 2 5 1 4 1 3 2 6 4 3 5 6 5 3 4 3 3 11 4 9 13 11 13 16 9 12
1 3 10 19 7 8 7 11 8 5 6 4 4 4 2 4 1 4 1 1 2 3 3 1 1 2 6 5 5 2 3 4 2 1 5 4 6 3 3 7 11 11 11 10 10
2 2 2 5 3 6 3 11 6 8 18 11 4 1 1 3 4 3 2 1 3 3 4 6 3 5 6 3 1 7 11 3 2 2 3 7 8 4 10 10 9 9 12 12 12
3 4 3 3 7 8 3 4 16 8 8 9 5 5 5 4 2 4 4 4 3 8 5 5 6 5 4 5 6 13 16 17 12 8 6 18 14 11 10 10 9 6 9 13 15
4 3 3 2 4 12 12 4 16 11 9 6 6 7 6 6 5 2 3 2 2 2 3 2 4 4 5 5 10 18 15 16 18 18 13 12 21 9 7 3 5 10 13 15 16
6 5 1 3 5 8 11 17 9 11 8 4 3 5 3 8 6 5 3 4 4 3 1 1 3 2 4 4 6 10 8 16 17 11 8 13 15 7 5 7 9 10 15 17 16
Wind_Direction
315 320 328 332 333 338 339 342 346 343 344 344 344 343 340 337 331 334 273 262 325 335 332 326 330 344 336 336 226 104 60 319 293 344 310 226 113 21 34 79 42 13 132 138 155
303 307 315 319 324 328 330 333 338 339 339 341 342 341 339 337 328 320 164 319 343 345 343 344 319 344 350 320 343 106 115 218 223 283 335 343 38 129 103 77 55 69 100 128 144
295 299 304 309 314 321 323 327 329 334 335 339 339 340 339 337 316 282 360 342 350 339 332 318 293 265 310 2 350 288 174 211 242 236 102 40 33 18 135 108 187 156 150 140 145
286 293 297 301 308 313 318 321 325 328 332 336 338 340 340 348 320 286 330 342 341 328 326 332 328 353 335 354 301 69 11 2 313 314 114 111 96 46 15 325 131 142 133 128 135
280 288 292 297 303 309 313 315 318 322 326 334 336 339 349 349 258 281 339 357 340 346 327 331 358 348 340 317 323 105 313 306 303 296 298 88 105 131 38 74 101 112 108 118 113
279 285 290 293 295 298 302 307 309 315 322 327 333 337 348 301 256 297 325 314 330 341 340 2 342 293 283 302 312 286 304 296 290 278 223 125 156 97 234 146 125 130 140 137 131
270 273 280 285 287 291 296 299 303 315 322 319 328 339 281 249 291 289 313 307 281 298 310 314 323 28 331 314 314 308 319 321 263 242 222 133 122 221 167 157 150 157 159 154 153
290 294 279 271 292 302 302 301 305 308 309 309 321 320 251 279 308 289 283 286 268 272 265 286 3 304 194 299 337 335 7 316 289 157 247 146 238 198 166 159 169 173 164 160 161
28 342 327 311 307 301 300 302 303 303 298 305 312 75 267 309 284 311 267 262 307 296 230 262 14 225 322 179 347 336 245 242 310 178 256 177 213 191 176 167 178 185 182 166 138
8 332 329 325 328 321 317 314 307 292 319 148 170 16 268 300 293 298 290 287 340 341 353 152 52 303 5 89 225 234 263 266 229 295 61 314 209 172 187 182 190 187 185 163 154
313 333 346 335 341 337 341 348 11 1 53 248 214 246 292 294 313 257 297 302 294 4 208 272 157 231 231 212 243 276 270 241 265 280 29 228 279 231 201 213 204 197 189 167 153
243 294 325 330 321 336 337 34 218 268 298 241 251 252 255 263 298 289 295 196 174 227 255 309 242 246 244 267 229 249 266 284 268 39 307 309 269 229 177 214 208 197 192 164 129
232 218 242 294 314 330 333 270 281 296 257 271 237 238 231 214 224 256 190 207 217 213 232 223 253 296 252 278 271 238 229 291 283 330 92 317 286 187 216 221 236 205 203 151 150
242 249 242 298 329 300 255 331 297 194 322 273 234 254 194 191 277 225 214 177 230 235 248 251 243 243 266 224 164 250 1 116 35 58 261 35 293 263 223 230 217 223 160 155 154
218 197 243 192 122 208 321 32 95 117 311 234 214 270 43 166 3 59 135 170 217 218 156 243 293 303 288 242 221 207 106 71 24 46 95 230 216 283 358 313 315 240 157 151 142
214 215 203 230 250 279 339 112 105 55 252 294 187 188 115 204 88 353 43 97 186 218 244 231 287 281 223 201 242 159 59 27 20 81 328 212 200 295 15 258 302 47 131 137 125
203 203 207 190 204 261 304 24 59 200 306 216 212 190 200 200 237 166 198 201 186 145 237 335 266 238 196 243 323 130 68 354 322 335 226 201 237 252 340 323 260 139 131 127 125
216 213 220 231 234 311 360 54 199 219 244 295 326 264 213 173 235 194 190 221 252 194 167 185 312 181 204 196 190 177 151 170 230 215 247 341 258 280 54 42 80 102 116 118 118
201 224 244 238 222 288 97 188 215 199 256 335 336 267 214 225 192 179 198 202 226 186 191 212 245 325 51 155 146 200 157 200 201 273 45 221 193 120 114 94 104 115 120 128 143
185 218 236 233 207 210 121 228 227 250 342 25 228 291 207 233 180 167 196 210 198 197 179 214 235 32 14 6 0 155 167 134 11 240 244 234 236 211 191 168 155 160 168 173 157
171 71 267 190 172 137 209 229 242 265 299 231 227 288 296 325 166 329 217 254 188 147 115 108 118 288 79 169 198 337 297 245 172 153 215 292 256 208 184 184 186 199 184 181 173
156 191 288 167 159 207 225 206 250 279 266 253 241 235 224 13 105 227 260 90 6 45 109 237 139 206 249 245 217 201 211 189 142 268 237 164 271 278 180 190 192 203 202 184 166
184 221 177 171 203 215 227 237 266 293 249 221 248 205 235 159 22 309 42 272 75 57 134 333 28 12 335 337 19 2 73 91 237 128 206 153 271 343 190 201 217 203 197 173 156
125 222 261 199 197 197 184 236 239 233 257 272 276 60 301 215 154 222 293 89 85 101 169 91 150 184 207 216 263 289 283 305 184 175 263 235 277 279 271 259 257 230 194 164 160
168 203 238 213 210 212 202 250 226 239 230 186 218 203 196 277 150 191 247 296 142 179 155 129 223 228 195 223 265 266 278 295 276 236 211 281 254 287 245 238 251 192 146 162 175
156 185 176 217 203 192 234 218 254 260 244 232 226 200 200 211 213 197 36 36 263 46 147 192 238 218 272 267 260 271 274 271 262 270 258 257 278 233 271 107 180 186 171 182 189
175 236 230 214 178 197 220 225 254 252 235 283 295 262 207 245 258 205 178 161 178 120 115 120 179 126 255 228 314 290 218 244 252 250 237 258 260 268 243 217 214 193 194 192 181